Time,TemperatureF,DewpointF,PressureIn,WindDirection,WindDirectionDegrees,WindSpeedMPH,WindSpeedGustMPH,Humidity,HourlyPrecipIn,Conditions,Clouds,dailyrainin,SoftwareType,DateUTC
2013-01-07 00:02:00,20.0,17.0,-100.00,NNE,19,4.0,7.0,88,0.00,,,0.00,,2013-01-07 07:02:00,
2013-01-07 00:11:00,20.0,17.0,-100.00,NNE,19,4.0,7.0,88,0.00,,,0.00,,2013-01-07 07:11:00,
2013-01-07 00:42:00,20.0,15.0,-100.00,WNW,291,2.0,4.0,82,0.00,,,0.00,,2013-01-07 07:42:00,
2013-01-07 00:52:00,20.0,15.0,-100.00,WNW,291,2.0,4.0,82,0.00,,,0.00,,2013-01-07 07:52:00,
2013-01-07 01:02:00,20.0,15.0,-100.00,WNW,291,2.0,4.0,82,0.00,,,0.00,,2013-01-07 08:02:00,
2013-01-07 01:11:00,20.0,15.0,-100.00,WNW,291,2.0,4.0,82,0.00,,,0.00,,2013-01-07 08:11:00,
2013-01-07 01:42:00,19.0,15.0,-100.00,NNE,12,3.0,5.0,84,0.00,,,0.00,,2013-01-07 08:42:00,
2013-01-07 01:53:00,19.0,15.0,-100.00,NNE,12,3.0,5.0,84,0.00,,,0.00,,2013-01-07 08:53:00,
2013-01-07 02:12:00,19.0,15.0,-100.00,NNE,12,3.0,5.0,84,0.00,,,0.00,,2013-01-07 09:12:00,
2013-01-07 02:42:00,28.0,18.0,-100.00,South,185,9.0,17.0,64,0.00,,,0.00,,2013-01-07 09:42:00,
2013-01-07 02:52:00,28.0,18.0,-100.00,South,185,9.0,17.0,64,0.00,,,0.00,,2013-01-07 09:52:00,
2013-01-07 03:02:00,28.0,18.0,-100.00,South,185,9.0,17.0,64,0.00,,,0.00,,2013-01-07 10:02:00,
2013-01-07 03:12:00,28.0,18.0,-100.00,South,185,9.0,17.0,64,0.00,,,0.00,,2013-01-07 10:12:00,
2013-01-07 03:42:00,28.0,19.0,-100.00,South,173,17.0,24.0,66,-99.99,,,-99.99,,2013-01-07 10:42:00,
2013-01-07 03:52:00,28.0,19.0,-100.00,South,173,17.0,24.0,66,-99.99,,,-99.99,,2013-01-07 10:52:00,
2013-01-07 04:02:00,28.0,19.0,-100.00,South,173,17.0,24.0,66,-99.99,,,-99.99,,2013-01-07 11:02:00,
2013-01-07 04:12:00,28.0,19.0,-100.00,South,173,17.0,24.0,66,-99.99,,,-99.99,,2013-01-07 11:12:00,
2013-01-07 04:43:00,28.0,19.0,-100.00,SSW,206,10.0,21.0,67,0.00,,,-99.99,,2013-01-07 11:43:00,
2013-01-07 04:53:00,28.0,19.0,-100.00,SSW,206,10.0,21.0,67,0.00,,,-99.99,,2013-01-07 11:53:00,
2013-01-07 05:02:00,28.0,19.0,-100.00,SSW,206,10.0,21.0,67,0.00,,,-99.99,,2013-01-07 12:02:00,
2013-01-07 05:12:00,28.0,19.0,-100.00,SSW,206,10.0,21.0,67,0.00,,,-99.99,,2013-01-07 12:12:00,
2013-01-07 05:43:00,27.0,18.0,-100.00,WSW,246,8.0,15.0,69,0.00,,,-99.99,,2013-01-07 12:43:00,
2013-01-07 05:53:00,27.0,18.0,-100.00,WSW,246,8.0,15.0,69,0.00,,,-99.99,,2013-01-07 12:53:00,
2013-01-07 06:02:00,27.0,18.0,-100.00,WSW,246,8.0,15.0,69,0.00,,,-99.99,,2013-01-07 13:02:00,
2013-01-07 06:12:00,27.0,18.0,-100.00,WSW,246,8.0,15.0,69,0.00,,,-99.99,,2013-01-07 13:12:00,
2013-01-07 06:42:00,29.0,18.0,-100.00,SW,214,9.0,25.0,63,0.00,,,-99.99,,2013-01-07 13:42:00,
2013-01-07 06:53:00,29.0,18.0,-100.00,SW,214,9.0,25.0,63,0.00,,,-99.99,,2013-01-07 13:53:00,
2013-01-07 07:03:00,29.0,18.0,-100.00,SW,214,9.0,25.0,63,0.00,,,-99.99,,2013-01-07 14:03:00,
2013-01-07 07:12:00,29.0,18.0,-100.00,SW,214,9.0,25.0,63,0.00,,,-99.99,,2013-01-07 14:12:00,
2013-01-07 07:42:00,24.0,16.0,-100.00,SSW,202,9.0,14.0,70,0.00,,,-99.99,,2013-01-07 14:42:00,
2013-01-07 07:53:00,24.0,16.0,-100.00,SSW,202,9.0,14.0,70,0.00,,,-99.99,,2013-01-07 14:53:00,
2013-01-07 08:03:00,24.0,16.0,-100.00,SSW,202,9.0,14.0,70,0.00,,,-99.99,,2013-01-07 15:03:00,
2013-01-07 08:12:00,24.0,16.0,-100.00,SSW,202,9.0,14.0,70,0.00,,,-99.99,,2013-01-07 15:12:00,
2013-01-07 08:42:00,27.0,17.0,-100.00,West,261,3.0,8.0,65,0.00,,,-99.99,,2013-01-07 15:42:00,
2013-01-07 08:53:00,27.0,17.0,-100.00,West,261,3.0,8.0,65,0.00,,,-99.99,,2013-01-07 15:53:00,
2013-01-07 09:02:00,27.0,17.0,-100.00,West,261,3.0,8.0,65,0.00,,,-99.99,,2013-01-07 16:02:00,
2013-01-07 09:12:00,27.0,17.0,-100.00,West,261,3.0,8.0,65,0.00,,,-99.99,,2013-01-07 16:12:00,
2013-01-07 09:43:00,27.0,16.0,-100.00,West,271,5.0,12.0,65,0.00,,,-99.99,,2013-01-07 16:43:00,
2013-01-07 09:53:00,27.0,16.0,-100.00,West,271,5.0,12.0,65,0.00,,,-99.99,,2013-01-07 16:53:00,
2013-01-07 10:02:00,27.0,16.0,-100.00,West,271,5.0,12.0,65,0.00,,,-99.99,,2013-01-07 17:02:00,
2013-01-07 10:12:00,27.0,16.0,-100.00,West,271,5.0,12.0,65,0.00,,,-99.99,,2013-01-07 17:12:00,
2013-01-07 10:42:00,29.0,18.0,-100.00,WSW,252,7.0,14.0,65,0.01,,,0.00,,2013-01-07 17:42:00,
2013-01-07 10:53:00,29.0,18.0,-100.00,WSW,252,7.0,14.0,65,0.01,,,0.00,,2013-01-07 17:53:00,
2013-01-07 11:02:00,29.0,18.0,-100.00,WSW,252,7.0,14.0,65,0.01,,,0.00,,2013-01-07 18:02:00,
2013-01-07 11:12:00,29.0,18.0,-100.00,WSW,252,7.0,14.0,65,0.01,,,0.00,,2013-01-07 18:12:00,
2013-01-07 11:42:00,30.0,18.0,-100.00,NNW,329,5.0,8.0,61,0.00,,,0.00,,2013-01-07 18:42:00,
2013-01-07 11:53:00,30.0,18.0,-100.00,NNW,329,5.0,8.0,61,0.00,,,0.00,,2013-01-07 18:53:00,
2013-01-07 12:03:00,30.0,18.0,-100.00,NNW,329,5.0,8.0,61,0.00,,,0.00,,2013-01-07 19:03:00,
2013-01-07 12:12:00,30.0,18.0,-100.00,NNW,329,5.0,8.0,61,0.00,,,0.00,,2013-01-07 19:12:00,
2013-01-07 12:42:00,31.0,18.0,-100.00,WNW,301,2.0,4.0,58,0.00,,,-99.99,,2013-01-07 19:42:00,
2013-01-07 12:53:00,31.0,18.0,-100.00,WNW,301,2.0,4.0,58,0.00,,,-99.99,,2013-01-07 19:53:00,
2013-01-07 13:02:00,31.0,18.0,-100.00,WNW,301,2.0,4.0,58,0.00,,,-99.99,,2013-01-07 20:02:00,
2013-01-07 13:12:00,31.0,18.0,-100.00,WNW,301,2.0,4.0,58,0.00,,,-99.99,,2013-01-07 20:12:00,
2013-01-07 13:42:00,31.0,19.0,-100.00,WSW,249,3.0,5.0,60,0.00,,,0.01,,2013-01-07 20:42:00,
2013-01-07 13:53:00,31.0,19.0,-100.00,WSW,249,3.0,5.0,60,0.00,,,0.01,,2013-01-07 20:53:00,
2013-01-07 14:02:00,31.0,19.0,-100.00,WSW,249,3.0,5.0,60,0.00,,,0.01,,2013-01-07 21:02:00,
2013-01-07 14:12:00,31.0,19.0,-100.00,WSW,249,3.0,5.0,60,0.00,,,0.01,,2013-01-07 21:12:00,
2013-01-07 14:42:00,33.0,20.0,-100.00,NNE,28,3.0,10.0,57,0.00,,,0.00,,2013-01-07 21:42:00,
2013-01-07 14:53:00,33.0,20.0,-100.00,NNE,28,3.0,10.0,57,0.00,,,0.00,,2013-01-07 21:53:00,
2013-01-07 15:02:00,33.0,20.0,-100.00,NNE,28,3.0,10.0,57,0.00,,,0.00,,2013-01-07 22:02:00,
2013-01-07 15:12:00,33.0,20.0,-100.00,NNE,28,3.0,10.0,57,0.00,,,0.00,,2013-01-07 22:12:00,
2013-01-07 15:42:00,33.0,23.0,-100.00,South,172,4.0,8.0,67,0.00,,,0.00,,2013-01-07 22:42:00,
2013-01-07 15:53:00,33.0,23.0,-100.00,South,172,4.0,8.0,67,0.00,,,0.00,,2013-01-07 22:53:00,
2013-01-07 16:02:00,33.0,23.0,-100.00,South,172,4.0,8.0,67,0.00,,,0.00,,2013-01-07 23:02:00,
2013-01-07 16:12:00,33.0,23.0,-100.00,South,172,4.0,8.0,67,0.00,,,0.00,,2013-01-07 23:12:00,
2013-01-07 16:42:00,33.0,23.0,-100.00,NNW,328,4.0,9.0,66,-99.99,,,-99.99,,2013-01-07 23:42:00,
2013-01-07 16:53:00,33.0,23.0,-100.00,NNW,328,4.0,9.0,66,-99.99,,,-99.99,,2013-01-07 23:53:00,
2013-01-07 17:02:00,33.0,23.0,-100.00,NNW,328,4.0,9.0,66,-99.99,,,-99.99,,2013-01-08 00:02:00,
2013-01-07 17:12:00,33.0,23.0,-100.00,NNW,328,4.0,9.0,66,-99.99,,,-99.99,,2013-01-08 00:12:00,
2013-01-07 17:42:00,35.0,25.0,-100.00,SSW,213,17.0,27.0,67,0.01,,,0.00,,2013-01-08 00:42:00,
2013-01-07 17:52:00,35.0,25.0,-100.00,SSW,213,17.0,27.0,67,0.01,,,0.00,,2013-01-08 00:52:00,
2013-01-07 18:02:00,35.0,25.0,-100.00,SSW,213,17.0,27.0,67,0.01,,,0.00,,2013-01-08 01:02:00,
2013-01-07 18:12:00,35.0,25.0,-100.00,SSW,213,17.0,27.0,67,0.01,,,0.00,,2013-01-08 01:12:00,
2013-01-07 18:42:00,37.0,25.0,-100.00,SSW,201,17.0,27.0,63,-99.99,,,0.00,,2013-01-08 01:42:00,
2013-01-07 18:52:00,37.0,25.0,-100.00,SSW,201,17.0,27.0,63,-99.99,,,0.00,,2013-01-08 01:52:00,
2013-01-07 19:02:00,37.0,25.0,-100.00,SSW,201,17.0,27.0,63,-99.99,,,0.00,,2013-01-08 02:02:00,
2013-01-07 19:12:00,37.0,25.0,-100.00,SSW,201,17.0,27.0,63,-99.99,,,0.00,,2013-01-08 02:12:00,
2013-01-07 19:42:00,35.0,26.0,-100.00,SSW,204,16.0,25.0,67,0.00,,,-99.99,,2013-01-08 02:42:00,
2013-01-07 19:53:00,35.0,26.0,-100.00,SSW,204,16.0,25.0,67,0.00,,,-99.99,,2013-01-08 02:53:00,
2013-01-07 20:03:00,35.0,26.0,-100.00,SSW,204,16.0,25.0,67,0.00,,,-99.99,,2013-01-08 03:03:00,
2013-01-07 20:12:00,35.0,26.0,-100.00,SSW,204,16.0,25.0,67,0.00,,,-99.99,,2013-01-08 03:12:00,
2013-01-07 20:42:00,38.0,24.0,-100.00,SW,217,9.0,23.0,59,0.00,,,0.00,,2013-01-08 03:42:00,
2013-01-07 20:53:00,38.0,24.0,-100.00,SW,217,9.0,23.0,59,0.00,,,0.00,,2013-01-08 03:53:00,
2013-01-07 21:02:00,38.0,24.0,-100.00,SW,217,9.0,23.0,59,0.00,,,0.00,,2013-01-08 04:02:00,
2013-01-07 21:12:00,38.0,24.0,-100.00,SW,217,9.0,23.0,59,0.00,,,0.00,,2013-01-08 04:12:00,
2013-01-07 21:42:00,38.0,25.0,-100.00,WSW,256,14.0,25.0,57,0.00,,,0.00,,2013-01-08 04:42:00,
2013-01-07 21:52:00,38.0,25.0,-100.00,WSW,256,14.0,25.0,57,0.00,,,0.00,,2013-01-08 04:52:00,
2013-01-07 22:03:00,38.0,25.0,-100.00,WSW,256,14.0,25.0,57,0.00,,,0.00,,2013-01-08 05:03:00,
2013-01-07 22:12:00,38.0,25.0,-100.00,WSW,256,14.0,25.0,57,0.00,,,0.00,,2013-01-08 05:12:00,
2013-01-07 22:42:00,39.0,26.0,-100.00,WSW,243,14.0,20.0,59,0.00,,,-99.99,,2013-01-08 05:42:00,
2013-01-07 22:53:00,39.0,26.0,-100.00,WSW,243,14.0,20.0,59,0.00,,,-99.99,,2013-01-08 05:53:00,
2013-01-07 23:02:00,39.0,26.0,-100.00,WSW,243,14.0,20.0,59,0.00,,,-99.99,,2013-01-08 06:02:00,
2013-01-07 23:12:00,39.0,26.0,-100.00,WSW,243,14.0,20.0,59,0.00,,,-99.99,,2013-01-08 06:12:00,
2013-01-07 23:42:00,37.0,27.0,-100.00,SW,229,15.0,23.0,67,0.01,,,0.00,,2013-01-08 06:42:00,
2013-01-07 23:53:00,37.0,27.0,-100.00,SW,229,15.0,23.0,67,0.01,,,0.00,,2013-01-08 06:53:00,